FENGYUN 1C DEB, 35210

Orbit data source: Space-Track

FENGYUN 1C DEB, 35210 is space debris in SSO originally from a launch on Mon, 10 May 1999 UTC launched from the Taiyaun Space Center, China (TSC). Fengyun 1C debris stems from the Chinese weather satellite Fengyun-1C, which was intentionally destroyed by a Chinese anti-satellite missile in 2007. This event dramatically increased the amount of space debris, with thousands of trackable fragments posing hazards to satellites and human spaceflight. The Fengyun 1C debris cloud has become a focal point in discussions about space sustainability and the need for international regulations to prevent the creation of new debris.

Loading next visibility...
Identifier
35210, 1999-025DPS
Orbit
SSO
Country
Flag of CNCN / PRC
Related business
Manufacturer
Unknown
Mission
Spacecraft
Bus & Motor
Unknown
Mass
Unknown
Launch date (UTC)
1999-05-10 (27 years ago)
Launch vehicle
Unknown
Launch site
Taiyaun Space Center, China (TSC)
Object type
Payload
Rocket body
Debris
Shape & HBR
Unknown shape, 0.1 m
Radar Cross Section
Medium (>0.1 m² and <1 m²)

Expand to show TLE details & history
Last TLE update: 2 days ago

TLE from 2 days ago
0 FENGYUN 1C DEB
1 35210U 99025DPS 26206.55342259  .00004681  00000-0  15964-2 0  9993
2 35210  99.0942 227.3805 0045622 304.1353 207.5045 14.36355315933476
Epoch: 2026-07-25T13:16Z
TLE epoch observation values (Epoch: 2026-07-25T13:16:55.711Z)
Latitude
28.25312°
Longitude
-90.20723°
Altitude
803.011 km
Speed
7.439 km/s
True Right ascension
03h 29m 09s
True Declination
28° 06' 39"
Sunlit
Object was in daylight at epoch
Visualization orbit readout
Latitude
Unknown
Longitude
Unknown
Altitude
Unknown
Speed
Unknown
Apparent Right ascension
Unknown
Apparent Declination
Unknown
Sunlit
N/A
Visualization observer readout
Local Sidereal Time
18:30:40
Azimuth
Unknown
Elevation
Unknown
Doppler factor
Unknown
Orbital elements
Apogee altitude
800.322 km
Perigee altitude
735.121 km
Semi-major axis
7,145.859 km
Eccentricity
0.00456
Inclination
99.0942°
RAAN
227.3805°
Arg. of periapsis
304.1353°
True anomaly
207.26428°
Mean anomaly
207.5045°
Eccentric anomaly
207.38427°
Mean motion
3.59304 °/min
Orbital period
100.19 mins
BSTAR
0.0015964
Loading maneuver chart data...
Computing Atmospheric mass density...
Loading historical data...
Loading historical data...
Loading historical data...
Loading historical data...
Loading historical data...
Loading historical data...
Loading historical data...

Documentation

Showing up to 5 results
|